{"data":{"norad_id":63567,"epoch":"2026-05-25T03:46:42.422016Z","epoch_age_seconds":64906,"freshness":"FRESH","line1":"1 63567U 25075V   26145.15743544  .00008704  00000+0  32543-3 0  9995","line2":"2 63567  43.0011 198.6265 0001708 274.1841  85.8816 15.27581781 63626","mean_motion":15.27581781,"eccentricity":0.0001708,"inclination_deg":43.0011,"raan_deg":198.6265,"arg_perigee_deg":274.1841,"mean_anomaly_deg":85.8816,"bstar":0.00032543,"rev_number":6362,"period_min":94.266638808518,"perigee_km":481.87187341579,"apogee_km":484.21565276446,"semimajor_km":6861.1807630901,"source":"CELESTRAK","updated_at":"2026-05-25T13:38:20.044675Z"}}